COSMOS 2432 (719)

Last updated on Tue Jan 14 2025 00:03:10 GMT+0000 (Coordinated Universal Time)

1 32276U 07052B 25013.60819109 -.00000082 00000+0 00000+0 0 9998 2 32276 65.8651 333.4829 0011859 319.3942 109.9836 2.13103154134015
UTC large
Height (km)
Speed (km/s)
/
Latitude / Longitude
Inclination (degrees)
Orbital Period (minutes)
Azimuth
Elevation
Range (km)
Doppler Factor

Next 0 passes for location: London (51.5072 / 0.1276)

Sorry there are no passes over London.